Flag for U.S.A. Weather past 2 weeks in Durham, North Carolina, U.S.A.

Now
79 °F

Mostly cloudy.


Feels Like: 82 °F
Forecast: 70 / 83 °F
Wind: 5 mph from North

Location: Raleigh-Durham International Airport

Current Time: Jul 22, 2014 at 1:27:11 PM

Latest Report: Jul 22, 2014 at 12:51 PM


Visibility: 10 mi

Pressure: 30.15 "Hg

Humidity: 77%

Dew point: 71 °F

Location of DurhamLocation

Historic Weather in Durham — Graph

°F

Durham temperature yesterday

Maximum temperature yesterday: 78 °F (at 11:51 AM)
Minimum temperature yesterday: 73 °F (at 12:51 PM)
Average temperature yesterday: 75 °F

Past Weeks' High & Low Weather Summary

 TemperatureHumidityPressure
High98 °F (Jul 8, 4:51 PM)94% (Jul 12, 3:00 AM)30.22 "Hg (Jul 12, 3:00 AM)
Low61 °F (Jul 17, 5:51 AM)24% (Jul 8, 2:51 PM)29.76 "Hg (Jul 15, 3:51 PM)
Average78 °F69%30.04 "Hg
* Reported Jul 7 11:51 AM — Jul 22 11:51 AM, Durham, Weather by CustomWeather, © 2014

Note: Actual official high and low records may vary slightly from our data, if they occured in-between our weather recording intervals... More about our weather records

Advertising

Durham weather history for previous 24 hours

 ConditionsComfort  
Time TempWeatherWind HumidityBarometerVisibility
11:51 AM
Jul 22
81 °FPartly sunny.8 mph72%30.15 "Hg10 mi
10:51 AM79 °FPartly sunny.6 mph74%30.16 "Hg10 mi
9:51 AM76 °FMostly cloudy.5 mph82%30.16 "Hg8 mi
8:51 AM75 °FMostly cloudy.5 mph85%30.17 "Hg5 mi
7:51 AM73 °FFog.3 mph88%30.16 "Hg1 mi
6:51 AM72 °FDrizzle. Fog.5 mph91%30.14 "Hg1 mi
5:51 AM72 °FFog.6 mph91%30.13 "Hg5 mi
4:51 AM73 °FFog.8 mph90%30.12 "Hg3 mi
3:51 AM72 °FFog.5 mph93%30.12 "Hg4 mi
2:51 AM72 °FFog.3 mph93%30.12 "Hg3 mi
1:51 AM72 °FFog.No wind93%30.14 "Hg4 mi
12:51 AM73 °FFog.No wind90%30.15 "Hg5 mi
11:51 PM
Jul 21
73 °FFog.No wind90%30.16 "Hg6 mi
10:51 PM73 °FMostly cloudy.5 mph90%30.16 "Hg8 mi
9:51 PM74 °FOvercast.No wind88%30.15 "Hg10 mi
8:51 PM75 °FCloudy.3 mph85%30.13 "Hg10 mi
7:51 PM76 °FMore clouds than sun.5 mph85%30.12 "Hg10 mi
6:51 PM77 °FMore clouds than sun.5 mph85%30.12 "Hg10 mi
5:51 PM76 °FCloudy.No wind88%30.12 "Hg10 mi
5:04 PM77 °FFog.6 mph89%30.14 "Hg1 mi
4:51 PM76 °FLight rain. Fog.No wind91%30.12 "Hg1 mi
3:51 PM76 °FLight rain. Fog.5 mph88%30.11 "Hg1 mi
2:51 PM75 °FLight rain. Fog.No wind90%30.12 "Hg1 mi
1:51 PM74 °FThunderstorms. Fog.3 mph94%30.12 "Hg2 mi
Weather by CustomWeather, © 2014

See weather overviewHow to use our weather pages